Time,TemperatureF,DewpointF,PressureIn,WindDirection,WindDirectionDegrees,WindSpeedMPH,WindSpeedGustMPH,Humidity,HourlyPrecipIn,Conditions,Clouds,dailyrainin,SolarRadiationWatts/m^2,SoftwareType,DateUTC
2013-01-17 00:02:00,27.2,8.2,30.54,ESE,119,9.0,14.0,44,0.00,,,0.00,0,WeatherCatV1.10B1784,2013-01-17 08:02:00,
2013-01-17 00:08:00,27.2,8.7,30.54,ESE,120,10.0,10.0,45,0.00,,,0.00,0,WeatherCatV1.10B1784,2013-01-17 08:08:00,
2013-01-17 00:14:00,27.3,8.8,30.54,SE,126,10.0,11.0,45,0.00,,,0.00,0,WeatherCatV1.10B1784,2013-01-17 08:14:00,
2013-01-17 00:20:00,27.5,9.0,30.54,ESE,117,7.0,10.0,45,0.00,,,0.00,0,WeatherCatV1.10B1784,2013-01-17 08:20:00,
2013-01-17 00:26:00,27.5,8.5,30.54,ESE,117,9.0,12.0,44,0.00,,,0.00,0,WeatherCatV1.10B1784,2013-01-17 08:26:00,
2013-01-17 00:32:00,27.8,8.8,30.52,ESE,112,7.0,11.0,44,0.00,,,0.00,0,WeatherCatV1.10B1784,2013-01-17 08:32:00,
2013-01-17 00:38:00,27.8,8.8,30.52,ESE,121,9.0,11.0,44,0.00,,,0.00,0,WeatherCatV1.10B1784,2013-01-17 08:38:00,
2013-01-17 00:44:00,27.9,8.8,30.52,ESE,112,6.0,12.0,44,0.00,,,0.00,0,WeatherCatV1.10B1784,2013-01-17 08:44:00,
2013-01-17 00:50:00,27.8,9.3,30.52,ESE,119,7.0,9.0,45,0.00,,,0.00,0,WeatherCatV1.10B1784,2013-01-17 08:50:00,
2013-01-17 00:56:00,28.1,9.0,30.52,ESE,112,9.0,13.0,44,0.00,,,0.00,0,WeatherCatV1.10B1784,2013-01-17 08:56:00,
2013-01-17 01:02:00,28.5,8.4,30.51,SE,137,9.0,12.0,42,0.00,,,0.00,0,WeatherCatV1.10B1784,2013-01-17 09:02:00,
2013-01-17 01:08:00,28.5,8.9,30.51,ESE,112,5.0,9.0,43,0.00,,,0.00,0,WeatherCatV1.10B1784,2013-01-17 09:08:00,
2013-01-17 01:14:00,28.2,8.6,30.51,SE,128,8.0,11.0,43,0.00,,,0.00,0,WeatherCatV1.10B1784,2013-01-17 09:14:00,
2013-01-17 01:20:00,28.4,8.8,30.51,SE,126,7.0,10.0,43,0.00,,,0.00,0,WeatherCatV1.10B1784,2013-01-17 09:20:00,
2013-01-17 01:26:00,28.2,8.6,30.51,ESE,121,6.0,8.0,43,0.00,,,0.00,0,WeatherCatV1.10B1784,2013-01-17 09:26:00,
2013-01-17 01:32:00,28.1,8.5,30.51,ESE,110,6.0,11.0,43,0.00,,,0.00,0,WeatherCatV1.10B1784,2013-01-17 09:32:00,
2013-01-17 01:38:00,28.5,8.4,30.51,ESE,115,8.0,9.0,42,0.00,,,0.00,0,WeatherCatV1.10B1784,2013-01-17 09:38:00,
2013-01-17 01:44:00,28.4,8.8,30.51,ESE,115,5.0,7.0,43,0.00,,,0.00,0,WeatherCatV1.10B1784,2013-01-17 09:44:00,
2013-01-17 01:50:00,28.5,7.8,30.51,ESE,108,5.0,8.0,41,0.00,,,0.00,0,WeatherCatV1.10B1784,2013-01-17 09:50:00,
2013-01-17 01:56:00,28.8,7.0,30.51,ESE,110,10.0,10.0,39,0.00,,,0.00,0,WeatherCatV1.10B1784,2013-01-17 09:56:00,
2013-01-17 02:02:00,29.1,6.7,30.51,ESE,108,7.0,11.0,38,0.00,,,0.00,0,WeatherCatV1.10B1784,2013-01-17 10:02:00,
2013-01-17 02:08:00,29.3,6.3,30.51,ESE,117,6.0,10.0,37,0.00,,,0.00,0,WeatherCatV1.10B1784,2013-01-17 10:08:00,
2013-01-17 02:14:00,29.5,6.5,30.51,ESE,118,6.0,9.0,37,0.00,,,0.00,0,WeatherCatV1.10B1784,2013-01-17 10:14:00,
2013-01-17 02:20:00,29.5,7.1,30.51,ESE,108,5.0,11.0,38,0.00,,,0.00,0,WeatherCatV1.10B1784,2013-01-17 10:20:00,
2013-01-17 02:26:00,29.5,7.6,30.51,ESE,116,7.0,9.0,39,0.00,,,0.00,0,WeatherCatV1.10B1784,2013-01-17 10:26:00,
2013-01-17 02:32:00,29.4,8.6,30.51,ESE,110,4.0,6.0,41,0.00,,,0.00,0,WeatherCatV1.10B1784,2013-01-17 10:32:00,
2013-01-17 02:38:00,29.1,8.4,30.51,ESE,104,5.0,6.0,41,0.00,,,0.00,0,WeatherCatV1.10B1784,2013-01-17 10:38:00,
2013-01-17 02:44:00,28.4,8.8,30.53,ESE,106,4.0,9.0,43,0.00,,,0.00,0,WeatherCatV1.10B1784,2013-01-17 10:44:00,
2013-01-17 02:50:00,28.4,8.3,30.53,ESE,109,6.0,9.0,42,0.00,,,0.00,0,WeatherCatV1.10B1784,2013-01-17 10:50:00,
2013-01-17 02:56:00,28.2,7.6,30.53,ESE,117,6.0,9.0,41,0.00,,,0.00,0,WeatherCatV1.10B1784,2013-01-17 10:56:00,
2013-01-17 03:02:00,27.8,7.2,30.53,ESE,120,6.0,9.0,41,0.00,,,0.00,0,WeatherCatV1.10B1784,2013-01-17 11:02:00,
2013-01-17 03:08:00,27.9,6.2,30.53,ESE,118,6.0,8.0,39,0.00,,,0.00,0,WeatherCatV1.10B1784,2013-01-17 11:08:00,
2013-01-17 03:14:00,27.6,5.4,30.55,ESE,117,7.0,9.0,38,0.00,,,0.00,0,WeatherCatV1.10B1784,2013-01-17 11:14:00,
2013-01-17 03:20:00,28.1,5.8,30.55,ESE,114,6.0,10.0,38,0.00,,,0.00,0,WeatherCatV1.10B1784,2013-01-17 11:20:00,
2013-01-17 03:26:00,27.9,5.6,30.55,ESE,108,7.0,7.0,38,0.00,,,0.00,0,WeatherCatV1.10B1784,2013-01-17 11:26:00,
2013-01-17 03:32:00,27.9,5.6,30.55,SE,126,7.0,11.0,38,0.00,,,0.00,0,WeatherCatV1.10B1784,2013-01-17 11:32:00,
2013-01-17 03:38:00,28.4,6.1,30.55,ESE,113,7.0,9.0,38,0.00,,,0.00,0,WeatherCatV1.10B1784,2013-01-17 11:38:00,
2013-01-17 03:44:00,28.5,6.2,30.53,ESE,118,7.0,9.0,38,0.00,,,0.00,0,WeatherCatV1.10B1784,2013-01-17 11:44:00,
2013-01-17 03:50:00,28.4,4.9,30.53,ESE,112,5.0,9.0,36,0.00,,,0.00,0,WeatherCatV1.10B1784,2013-01-17 11:50:00,
2013-01-17 03:56:00,28.1,5.2,30.53,ESE,112,6.0,10.0,37,0.00,,,0.00,0,WeatherCatV1.10B1784,2013-01-17 11:56:00,
2013-01-17 04:02:00,28.2,5.9,30.54,ESE,114,4.0,7.0,38,0.00,,,0.00,0,WeatherCatV1.10B1784,2013-01-17 12:02:00,
2013-01-17 04:08:00,28.5,5.0,30.54,ESE,118,10.0,10.0,36,0.00,,,0.00,0,WeatherCatV1.10B1784,2013-01-17 12:08:00,
2013-01-17 04:14:00,28.7,5.2,30.54,ESE,116,7.0,8.0,36,0.00,,,0.00,0,WeatherCatV1.10B1784,2013-01-17 12:14:00,
2013-01-17 04:20:00,28.4,4.9,30.54,ESE,108,9.0,10.0,36,0.00,,,0.00,0,WeatherCatV1.10B1784,2013-01-17 12:20:00,
2013-01-17 04:26:00,29.0,4.8,30.54,ESE,118,7.0,10.0,35,0.00,,,0.00,0,WeatherCatV1.10B1784,2013-01-17 12:26:00,
2013-01-17 04:32:00,29.1,4.9,30.54,SE,124,7.0,10.0,35,0.00,,,0.00,0,WeatherCatV1.10B1784,2013-01-17 12:32:00,
2013-01-17 04:38:00,28.8,4.0,30.54,ESE,120,5.0,9.0,34,0.00,,,0.00,0,WeatherCatV1.10B1784,2013-01-17 12:38:00,
2013-01-17 04:44:00,28.8,4.0,30.54,ESE,118,6.0,10.0,34,0.00,,,0.00,0,WeatherCatV1.10B1784,2013-01-17 12:44:00,
2013-01-17 04:50:00,28.8,4.0,30.54,ESE,110,9.0,10.0,34,0.00,,,0.00,0,WeatherCatV1.10B1784,2013-01-17 12:50:00,
2013-01-17 04:56:00,28.8,4.0,30.54,ESE,114,6.0,10.0,34,0.00,,,0.00,0,WeatherCatV1.10B1784,2013-01-17 12:56:00,
2013-01-17 05:02:00,28.5,3.7,30.54,ESE,112,6.0,9.0,34,0.00,,,0.00,0,WeatherCatV1.10B1784,2013-01-17 13:02:00,
2013-01-17 05:08:00,28.5,4.4,30.54,ESE,112,7.0,10.0,35,0.00,,,0.00,0,WeatherCatV1.10B1784,2013-01-17 13:08:00,
2013-01-17 05:14:00,28.7,3.9,30.54,ESE,115,9.0,11.0,34,0.00,,,0.00,0,WeatherCatV1.10B1784,2013-01-17 13:14:00,
2013-01-17 05:20:00,28.7,4.5,30.54,SE,131,9.0,11.0,35,0.00,,,0.00,0,WeatherCatV1.10B1784,2013-01-17 13:20:00,
2013-01-17 05:26:00,28.7,3.9,30.54,ESE,114,6.0,11.0,34,0.00,,,0.00,0,WeatherCatV1.10B1784,2013-01-17 13:26:00,
2013-01-17 05:32:00,28.2,4.7,30.54,ESE,112,6.0,10.0,36,0.00,,,0.00,0,WeatherCatV1.10B1784,2013-01-17 13:32:00,
2013-01-17 05:38:00,28.4,4.3,30.54,ESE,112,6.0,9.0,35,0.00,,,0.00,0,WeatherCatV1.10B1784,2013-01-17 13:38:00,
2013-01-17 05:44:00,28.1,4.0,30.56,ESE,115,7.0,9.0,35,0.00,,,0.00,0,WeatherCatV1.10B1784,2013-01-17 13:44:00,
2013-01-17 05:50:00,28.2,3.5,30.56,ESE,116,6.0,10.0,34,0.00,,,0.00,0,WeatherCatV1.10B1784,2013-01-17 13:50:00,
2013-01-17 05:56:00,28.5,3.7,30.56,ESE,110,5.0,9.0,34,0.00,,,0.00,0,WeatherCatV1.10B1784,2013-01-17 13:56:00,
2013-01-17 06:02:00,28.4,3.7,30.56,ESE,116,5.0,10.0,34,0.00,,,0.00,0,WeatherCatV1.10B1784,2013-01-17 14:02:00,
2013-01-17 06:08:00,28.5,3.7,30.56,ESE,118,10.0,10.0,34,0.00,,,0.00,0,WeatherCatV1.10B1784,2013-01-17 14:08:00,
2013-01-17 06:14:00,28.5,3.1,30.54,ESE,110,5.0,8.0,33,0.00,,,0.00,0,WeatherCatV1.10B1784,2013-01-17 14:14:00,
2013-01-17 06:20:00,28.2,2.8,30.54,East,97,5.0,10.0,33,0.00,,,0.00,0,WeatherCatV1.10B1784,2013-01-17 14:20:00,
2013-01-17 06:26:00,27.6,3.6,30.54,ESE,107,5.0,7.0,35,0.00,,,0.00,0,WeatherCatV1.10B1784,2013-01-17 14:26:00,
2013-01-17 06:32:00,27.8,3.7,30.55,ESE,110,6.0,11.0,35,0.00,,,0.00,0,WeatherCatV1.10B1784,2013-01-17 14:32:00,
2013-01-17 06:38:00,27.8,3.7,30.55,ESE,112,5.0,9.0,35,0.00,,,0.00,0,WeatherCatV1.10B1784,2013-01-17 14:38:00,
2013-01-17 06:44:00,27.6,2.9,30.56,ESE,116,7.0,11.0,34,0.00,,,0.00,0,WeatherCatV1.10B1784,2013-01-17 14:44:00,
2013-01-17 06:50:00,27.6,2.3,30.56,ESE,107,6.0,10.0,33,0.00,,,0.00,0,WeatherCatV1.10B1784,2013-01-17 14:50:00,
2013-01-17 06:56:00,27.6,1.6,30.56,ESE,104,7.0,11.0,32,0.00,,,0.00,0,WeatherCatV1.10B1784,2013-01-17 14:56:00,
2013-01-17 07:02:00,27.6,2.3,30.56,ESE,104,5.0,8.0,33,0.00,,,0.00,0,WeatherCatV1.10B1784,2013-01-17 15:02:00,
2013-01-17 07:08:00,27.5,2.2,30.56,ESE,110,5.0,10.0,33,0.00,,,0.00,0,WeatherCatV1.10B1784,2013-01-17 15:08:00,
2013-01-17 07:14:00,27.3,3.3,30.58,ESE,114,6.0,8.0,35,0.00,,,0.00,0,WeatherCatV1.10B1784,2013-01-17 15:14:00,
2013-01-17 07:20:00,27.2,4.4,30.58,ESE,106,4.0,9.0,37,0.00,,,0.00,5,WeatherCatV1.10B1784,2013-01-17 15:20:00,
2013-01-17 07:26:00,27.0,4.8,30.58,ESE,106,5.0,7.0,38,0.00,,,0.00,9,WeatherCatV1.10B1784,2013-01-17 15:26:00,
2013-01-17 07:32:00,27.0,4.8,30.58,ESE,107,6.0,9.0,38,0.00,,,0.00,11,WeatherCatV1.10B1784,2013-01-17 15:32:00,
2013-01-17 07:38:00,27.3,4.5,30.58,ESE,116,9.0,11.0,37,0.00,,,0.00,12,WeatherCatV1.10B1784,2013-01-17 15:38:00,
2013-01-17 07:44:00,27.3,4.5,30.58,ESE,110,9.0,11.0,37,0.00,,,0.00,16,WeatherCatV1.10B1784,2013-01-17 15:44:00,
2013-01-17 07:50:00,27.3,4.5,30.58,ESE,119,7.0,10.0,37,0.00,,,0.00,16,WeatherCatV1.10B1784,2013-01-17 15:50:00,
2013-01-17 07:56:00,27.3,4.5,30.58,ESE,106,5.0,10.0,37,0.00,,,0.00,19,WeatherCatV1.10B1784,2013-01-17 15:56:00,
2013-01-17 08:02:00,27.5,3.5,30.58,ESE,117,9.0,11.0,35,0.00,,,0.00,44,WeatherCatV1.10B1784,2013-01-17 16:02:00,
2013-01-17 08:08:00,27.8,3.1,30.58,East,93,7.0,13.0,34,0.00,,,0.00,77,WeatherCatV1.10B1784,2013-01-17 16:08:00,
2013-01-17 08:14:00,28.2,3.5,30.59,ESE,109,9.0,10.0,34,0.00,,,0.00,97,WeatherCatV1.10B1784,2013-01-17 16:14:00,
2013-01-17 08:20:00,28.8,4.0,30.59,ESE,120,7.0,12.0,34,0.00,,,0.00,114,WeatherCatV1.10B1784,2013-01-17 16:20:00,
2013-01-17 08:26:00,29.3,5.1,30.59,ESE,104,7.0,13.0,35,0.00,,,0.00,134,WeatherCatV1.10B1784,2013-01-17 16:26:00,
2013-01-17 08:32:00,29.4,3.2,30.57,SE,141,10.0,12.0,32,0.00,,,0.00,149,WeatherCatV1.10B1784,2013-01-17 16:32:00,
2013-01-17 08:38:00,29.5,4.0,30.57,East,101,9.0,11.0,33,0.00,,,0.00,130,WeatherCatV1.10B1784,2013-01-17 16:38:00,
2013-01-17 08:44:00,29.5,5.3,30.58,ESE,102,10.0,16.0,35,0.00,,,0.00,70,WeatherCatV1.10B1784,2013-01-17 16:44:00,
2013-01-17 08:50:00,29.7,4.2,30.58,ESE,104,5.0,11.0,33,0.00,,,0.00,86,WeatherCatV1.10B1784,2013-01-17 16:50:00,
2013-01-17 08:56:00,29.7,4.2,30.58,ESE,120,6.0,11.0,33,0.00,,,0.00,121,WeatherCatV1.10B1784,2013-01-17 16:56:00,
2013-01-17 09:02:00,29.7,3.5,30.58,ESE,106,6.0,13.0,32,0.00,,,0.00,232,WeatherCatV1.10B1784,2013-01-17 17:02:00,
2013-01-17 09:08:00,29.8,4.9,30.58,ESE,108,6.0,11.0,34,0.00,,,0.00,250,WeatherCatV1.10B1784,2013-01-17 17:08:00,
2013-01-17 09:14:00,30.1,5.2,30.58,ESE,107,9.0,11.0,34,0.00,,,0.00,265,WeatherCatV1.10B1784,2013-01-17 17:14:00,
2013-01-17 09:20:00,30.4,4.8,30.58,East,98,4.0,12.0,33,0.00,,,0.00,281,WeatherCatV1.10B1784,2013-01-17 17:20:00,
2013-01-17 09:26:00,30.7,5.7,30.58,ESE,117,7.0,10.0,34,0.00,,,0.00,297,WeatherCatV1.10B1784,2013-01-17 17:26:00,
2013-01-17 09:32:00,31.2,4.8,30.56,ESE,110,10.0,13.0,32,0.00,,,0.00,313,WeatherCatV1.10B1784,2013-01-17 17:32:00,
2013-01-17 09:38:00,31.3,4.2,30.56,East,99,4.0,10.0,31,0.00,,,0.00,327,WeatherCatV1.10B1784,2013-01-17 17:38:00,
2013-01-17 09:44:00,31.5,3.7,30.56,ESE,103,7.0,13.0,30,0.00,,,0.00,343,WeatherCatV1.10B1784,2013-01-17 17:44:00,
2013-01-17 09:50:00,31.6,5.8,30.56,ESE,108,9.0,11.0,33,0.00,,,0.00,357,WeatherCatV1.10B1784,2013-01-17 17:50:00,
2013-01-17 09:56:00,31.9,4.7,30.56,ESE,120,9.0,11.0,31,0.00,,,0.00,371,WeatherCatV1.10B1784,2013-01-17 17:56:00,
2013-01-17 10:02:00,32.4,3.7,30.56,ESE,112,9.0,17.0,29,0.00,,,0.00,385,WeatherCatV1.10B1784,2013-01-17 18:02:00,
2013-01-17 10:08:00,32.7,3.2,30.56,SE,130,9.0,13.0,28,0.00,,,0.00,397,WeatherCatV1.10B1784,2013-01-17 18:08:00,
2013-01-17 10:14:00,32.8,2.5,30.55,ESE,113,10.0,14.0,27,0.00,,,0.00,411,WeatherCatV1.10B1784,2013-01-17 18:14:00,
2013-01-17 10:20:00,32.7,4.0,30.55,ESE,116,10.0,11.0,29,0.00,,,0.00,424,WeatherCatV1.10B1784,2013-01-17 18:20:00,
2013-01-17 10:26:00,32.7,4.7,30.55,ESE,114,7.0,11.0,30,0.00,,,0.00,434,WeatherCatV1.10B1784,2013-01-17 18:26:00,
2013-01-17 10:32:00,33.1,6.5,30.54,ESE,109,9.0,12.0,32,0.00,,,0.00,446,WeatherCatV1.10B1784,2013-01-17 18:32:00,
2013-01-17 10:38:00,33.4,3.8,30.54,ESE,108,10.0,11.0,28,0.00,,,0.00,457,WeatherCatV1.10B1784,2013-01-17 18:38:00,
2013-01-17 10:44:00,34.0,4.4,30.54,ESE,110,7.0,13.0,28,0.00,,,0.00,468,WeatherCatV1.10B1784,2013-01-17 18:44:00,
2013-01-17 10:50:00,34.4,3.9,30.54,ESE,120,7.0,11.0,27,0.00,,,0.00,476,WeatherCatV1.10B1784,2013-01-17 18:50:00,
2013-01-17 10:56:00,34.6,4.1,30.54,SE,124,9.0,10.0,27,0.00,,,0.00,485,WeatherCatV1.10B1784,2013-01-17 18:56:00,
2013-01-17 11:02:00,35.2,3.8,30.52,ESE,106,4.0,13.0,26,0.00,,,0.00,492,WeatherCatV1.10B1784,2013-01-17 19:02:00,
2013-01-17 11:08:00,35.3,6.3,30.52,ESE,106,4.0,11.0,29,0.00,,,0.00,503,WeatherCatV1.10B1784,2013-01-17 19:08:00,
2013-01-17 11:14:00,35.2,5.4,30.51,SE,126,6.0,11.0,28,0.00,,,0.00,510,WeatherCatV1.10B1784,2013-01-17 19:14:00,
2013-01-17 11:20:00,35.5,4.9,30.51,SE,125,8.0,13.0,27,0.00,,,0.00,515,WeatherCatV1.10B1784,2013-01-17 19:20:00,
2013-01-17 11:26:00,35.5,4.1,30.51,ESE,122,7.0,10.0,26,0.00,,,0.00,522,WeatherCatV1.10B1784,2013-01-17 19:26:00,
2013-01-17 11:32:00,35.6,5.0,30.51,ESE,102,10.0,12.0,27,0.00,,,0.00,526,WeatherCatV1.10B1784,2013-01-17 19:32:00,
2013-01-17 11:38:00,35.5,4.9,30.51,ESE,107,5.0,11.0,27,0.00,,,0.00,531,WeatherCatV1.10B1784,2013-01-17 19:38:00,
2013-01-17 11:44:00,35.6,4.1,30.50,ESE,111,12.0,12.0,26,0.00,,,0.00,536,WeatherCatV1.10B1784,2013-01-17 19:44:00,
2013-01-17 11:50:00,35.6,3.3,30.50,ESE,106,7.0,12.0,25,0.00,,,0.00,540,WeatherCatV1.10B1784,2013-01-17 19:50:00,
2013-01-17 11:56:00,35.8,3.5,30.50,ESE,107,6.0,12.0,25,0.00,,,0.00,541,WeatherCatV1.10B1784,2013-01-17 19:56:00,
2013-01-17 12:02:00,35.9,4.4,30.49,SE,139,7.0,12.0,26,0.00,,,0.00,545,WeatherCatV1.10B1784,2013-01-17 20:02:00,
2013-01-17 12:08:00,35.9,4.4,30.49,East,91,10.0,11.0,26,0.00,,,0.00,547,WeatherCatV1.10B1784,2013-01-17 20:08:00,
2013-01-17 12:14:00,35.5,4.1,30.47,ESE,109,6.0,13.0,26,0.00,,,0.00,548,WeatherCatV1.10B1784,2013-01-17 20:14:00,
2013-01-17 12:20:00,35.6,5.0,30.47,SSE,151,11.0,11.0,27,0.00,,,0.00,548,WeatherCatV1.10B1784,2013-01-17 20:20:00,
2013-01-17 12:26:00,35.9,3.5,30.47,ESE,112,10.0,14.0,25,0.00,,,0.00,548,WeatherCatV1.10B1784,2013-01-17 20:26:00,
2013-01-17 12:32:00,35.9,4.4,30.45,East,100,12.0,12.0,26,0.00,,,0.00,548,WeatherCatV1.10B1784,2013-01-17 20:32:00,
2013-01-17 12:38:00,35.8,3.5,30.45,ESE,110,9.0,15.0,25,0.00,,,0.00,547,WeatherCatV1.10B1784,2013-01-17 20:38:00,
2013-01-17 12:44:00,35.9,5.2,30.45,SE,146,11.0,13.0,27,0.00,,,0.00,545,WeatherCatV1.10B1784,2013-01-17 20:44:00,
2013-01-17 12:50:00,35.9,7.5,30.45,SE,130,9.0,12.0,30,0.00,,,0.00,543,WeatherCatV1.10B1784,2013-01-17 20:50:00,
2013-01-17 12:56:00,35.6,7.3,30.45,ESE,108,8.0,13.0,30,0.00,,,0.00,540,WeatherCatV1.10B1784,2013-01-17 20:56:00,
2013-01-17 13:02:00,35.5,5.7,30.44,ESE,109,7.0,12.0,28,0.00,,,0.00,536,WeatherCatV1.10B1784,2013-01-17 21:02:00,
2013-01-17 13:08:00,35.8,5.9,30.44,East,100,7.0,11.0,28,0.00,,,0.00,531,WeatherCatV1.10B1784,2013-01-17 21:08:00,
2013-01-17 13:14:00,35.6,6.5,30.43,ESE,110,10.0,13.0,29,0.00,,,0.00,527,WeatherCatV1.10B1784,2013-01-17 21:14:00,
2013-01-17 13:20:00,35.6,5.7,30.43,ESE,113,12.0,12.0,28,0.00,,,0.00,522,WeatherCatV1.10B1784,2013-01-17 21:20:00,
2013-01-17 13:26:00,35.8,5.9,30.43,ESE,120,6.0,11.0,28,0.00,,,0.00,515,WeatherCatV1.10B1784,2013-01-17 21:26:00,
2013-01-17 13:32:00,35.6,5.0,30.43,ESE,122,6.0,13.0,27,0.00,,,0.00,510,WeatherCatV1.10B1784,2013-01-17 21:32:00,
2013-01-17 13:38:00,35.9,5.2,30.43,ESE,113,6.0,12.0,27,0.00,,,0.00,503,WeatherCatV1.10B1784,2013-01-17 21:38:00,
2013-01-17 13:44:00,35.9,5.2,30.43,ESE,119,6.0,11.0,27,0.00,,,0.00,494,WeatherCatV1.10B1784,2013-01-17 21:44:00,
2013-01-17 13:50:00,35.9,5.2,30.43,ESE,115,6.0,13.0,27,0.00,,,0.00,485,WeatherCatV1.10B1784,2013-01-17 21:50:00,
2013-01-17 13:56:00,36.0,5.3,30.43,ESE,114,7.0,12.0,27,0.00,,,0.00,478,WeatherCatV1.10B1784,2013-01-17 21:56:00,
2013-01-17 14:02:00,35.8,5.9,30.42,ESE,107,6.0,11.0,28,0.00,,,0.00,468,WeatherCatV1.10B1784,2013-01-17 22:02:00,
2013-01-17 14:08:00,35.6,6.5,30.42,ESE,116,8.0,11.0,29,0.00,,,0.00,459,WeatherCatV1.10B1784,2013-01-17 22:08:00,
2013-01-17 14:14:00,35.3,6.3,30.44,ESE,108,9.0,12.0,29,0.00,,,0.00,446,WeatherCatV1.10B1784,2013-01-17 22:14:00,
2013-01-17 14:20:00,34.9,6.6,30.44,SE,127,7.0,14.0,30,0.00,,,0.00,436,WeatherCatV1.10B1784,2013-01-17 22:20:00,
2013-01-17 14:26:00,34.6,7.8,30.44,ESE,120,9.0,12.0,32,0.00,,,0.00,424,WeatherCatV1.10B1784,2013-01-17 22:26:00,
2013-01-17 14:32:00,34.3,7.5,30.43,ESE,112,11.0,13.0,32,0.00,,,0.00,411,WeatherCatV1.10B1784,2013-01-17 22:32:00,
2013-01-17 14:38:00,33.8,8.4,30.43,ESE,120,11.0,14.0,34,0.00,,,0.00,399,WeatherCatV1.10B1784,2013-01-17 22:38:00,
2013-01-17 14:44:00,33.4,8.7,30.45,SE,126,9.0,11.0,35,0.00,,,0.00,339,WeatherCatV1.10B1784,2013-01-17 22:44:00,
2013-01-17 14:50:00,32.9,9.5,30.45,ESE,119,11.0,13.0,37,0.00,,,0.00,46,WeatherCatV1.10B1784,2013-01-17 22:50:00,
2013-01-17 14:56:00,32.7,8.1,30.45,SE,135,12.0,14.0,35,0.00,,,0.00,25,WeatherCatV1.10B1784,2013-01-17 22:56:00,
2013-01-17 15:02:00,32.5,8.5,30.45,SE,125,10.0,11.0,36,0.00,,,0.00,67,WeatherCatV1.10B1784,2013-01-17 23:02:00,
2013-01-17 15:08:00,32.1,8.8,30.45,ESE,122,9.0,13.0,37,0.00,,,0.00,33,WeatherCatV1.10B1784,2013-01-17 23:08:00,
2013-01-17 15:14:00,31.8,9.1,30.45,ESE,123,9.0,11.0,38,0.00,,,0.00,23,WeatherCatV1.10B1784,2013-01-17 23:14:00,
2013-01-17 15:20:00,31.8,7.9,30.45,SE,127,10.0,14.0,36,0.00,,,0.00,23,WeatherCatV1.10B1784,2013-01-17 23:20:00,
2013-01-17 15:26:00,31.6,6.5,30.45,ESE,118,7.0,11.0,34,0.00,,,0.00,26,WeatherCatV1.10B1784,2013-01-17 23:26:00,
2013-01-17 15:32:00,31.0,6.6,30.47,ESE,109,10.0,11.0,35,0.00,,,0.00,23,WeatherCatV1.10B1784,2013-01-17 23:32:00,
2013-01-17 15:38:00,30.4,6.7,30.47,ESE,105,6.0,11.0,36,0.00,,,0.00,21,WeatherCatV1.10B1784,2013-01-17 23:38:00,
2013-01-17 15:44:00,30.1,5.8,30.47,ESE,114,9.0,9.0,35,0.00,,,0.00,21,WeatherCatV1.10B1784,2013-01-17 23:44:00,
2013-01-17 15:50:00,30.0,6.3,30.47,ESE,118,10.0,13.0,36,0.00,,,0.00,26,WeatherCatV1.10B1784,2013-01-17 23:50:00,
2013-01-17 15:56:00,29.7,7.8,30.47,ESE,112,3.0,10.0,39,0.00,,,0.00,19,WeatherCatV1.10B1784,2013-01-17 23:56:00,
2013-01-17 16:02:00,29.7,4.8,30.48,ESE,122,6.0,14.0,34,0.00,,,0.00,19,WeatherCatV1.10B1784,2013-01-18 00:02:00,
2013-01-17 16:08:00,29.5,5.3,30.48,ESE,113,6.0,12.0,35,0.00,,,0.00,18,WeatherCatV1.10B1784,2013-01-18 00:08:00,
2013-01-17 16:14:00,29.4,5.8,30.48,ESE,107,4.0,10.0,36,0.00,,,0.00,18,WeatherCatV1.10B1784,2013-01-18 00:14:00,
2013-01-17 16:20:00,29.0,6.0,30.48,ESE,110,6.0,11.0,37,0.00,,,0.00,16,WeatherCatV1.10B1784,2013-01-18 00:20:00,
2013-01-17 16:26:00,28.7,5.2,30.48,SE,124,8.0,13.0,36,0.00,,,0.00,16,WeatherCatV1.10B1784,2013-01-18 00:26:00,
2013-01-17 16:32:00,28.4,5.5,30.48,ESE,113,7.0,12.0,37,0.00,,,0.00,14,WeatherCatV1.10B1784,2013-01-18 00:32:00,
2013-01-17 16:38:00,28.4,5.5,30.48,ESE,106,10.0,11.0,37,0.00,,,0.00,12,WeatherCatV1.10B1784,2013-01-18 00:38:00,
2013-01-17 16:44:00,28.1,5.8,30.49,ESE,110,8.0,10.0,38,0.00,,,0.00,12,WeatherCatV1.10B1784,2013-01-18 00:44:00,
2013-01-17 16:50:00,27.9,6.2,30.49,ESE,114,7.0,10.0,39,0.00,,,0.00,11,WeatherCatV1.10B1784,2013-01-18 00:50:00,
2013-01-17 16:56:00,27.8,6.7,30.49,ESE,117,7.0,7.0,40,0.00,,,0.00,7,WeatherCatV1.10B1784,2013-01-18 00:56:00,
2013-01-17 17:02:00,27.6,5.9,30.50,ESE,111,9.0,11.0,39,0.00,,,0.00,5,WeatherCatV1.10B1784,2013-01-18 01:02:00,
2013-01-17 17:08:00,27.5,6.4,30.50,East,101,7.0,9.0,40,0.00,,,0.00,0,WeatherCatV1.10B1784,2013-01-18 01:08:00,
2013-01-17 17:14:00,27.3,6.2,30.52,ESE,107,5.0,10.0,40,0.00,,,0.00,0,WeatherCatV1.10B1784,2013-01-18 01:14:00,
2013-01-17 17:20:00,27.6,6.5,30.52,ESE,117,7.0,9.0,40,0.00,,,0.00,0,WeatherCatV1.10B1784,2013-01-18 01:20:00,
2013-01-17 17:26:00,28.1,5.8,30.52,ESE,120,8.0,9.0,38,0.00,,,0.00,0,WeatherCatV1.10B1784,2013-01-18 01:26:00,
2013-01-17 17:32:00,28.4,4.9,30.50,ESE,106,6.0,10.0,36,0.00,,,0.00,0,WeatherCatV1.10B1784,2013-01-18 01:32:00,
2013-01-17 17:38:00,28.2,5.9,30.50,SE,126,9.0,14.0,38,0.00,,,0.00,0,WeatherCatV1.10B1784,2013-01-18 01:38:00,
2013-01-17 17:44:00,28.4,6.6,30.50,ESE,118,7.0,10.0,39,0.00,,,0.00,0,WeatherCatV1.10B1784,2013-01-18 01:44:00,
2013-01-17 17:50:00,28.2,7.0,30.50,ESE,108,5.0,9.0,40,0.00,,,0.00,0,WeatherCatV1.10B1784,2013-01-18 01:50:00,
2013-01-17 17:56:00,27.5,6.4,30.50,ESE,108,3.0,11.0,40,0.00,,,0.00,0,WeatherCatV1.10B1784,2013-01-18 01:56:00,
2013-01-17 18:02:00,27.0,6.5,30.51,ESE,111,5.0,10.0,41,0.00,,,0.00,0,WeatherCatV1.10B1784,2013-01-18 02:02:00,
2013-01-17 18:08:00,27.0,7.0,30.51,ESE,113,5.0,11.0,42,0.00,,,0.00,0,WeatherCatV1.10B1784,2013-01-18 02:08:00,
2013-01-17 18:14:00,26.9,6.9,30.51,ESE,109,6.0,9.0,42,0.00,,,0.00,0,WeatherCatV1.10B1784,2013-01-18 02:14:00,
2013-01-17 18:20:00,26.6,6.6,30.51,ESE,112,6.0,11.0,42,0.00,,,0.00,0,WeatherCatV1.10B1784,2013-01-18 02:20:00,
2013-01-17 18:26:00,26.3,5.8,30.51,ESE,112,6.0,11.0,41,0.00,,,0.00,0,WeatherCatV1.10B1784,2013-01-18 02:26:00,
2013-01-17 18:32:00,26.1,6.7,30.50,ESE,102,6.0,11.0,43,0.00,,,0.00,0,WeatherCatV1.10B1784,2013-01-18 02:32:00,
2013-01-17 18:38:00,26.1,6.7,30.50,ESE,103,6.0,10.0,43,0.00,,,0.00,0,WeatherCatV1.10B1784,2013-01-18 02:38:00,
2013-01-17 18:44:00,26.1,6.7,30.51,ESE,108,5.0,10.0,43,0.00,,,0.00,0,WeatherCatV1.10B1784,2013-01-18 02:44:00,
2013-01-17 18:50:00,26.1,6.7,30.51,ESE,110,3.0,11.0,43,0.00,,,0.00,0,WeatherCatV1.10B1784,2013-01-18 02:50:00,
2013-01-17 18:56:00,26.1,6.7,30.51,ESE,103,5.0,11.0,43,0.00,,,0.00,0,WeatherCatV1.10B1784,2013-01-18 02:56:00,
2013-01-17 19:02:00,26.3,6.9,30.50,ESE,116,6.0,7.0,43,0.00,,,0.00,0,WeatherCatV1.10B1784,2013-01-18 03:02:00,
2013-01-17 19:08:00,27.0,6.5,30.50,ESE,110,7.0,11.0,41,0.00,,,0.00,0,WeatherCatV1.10B1784,2013-01-18 03:08:00,
2013-01-17 19:14:00,27.2,6.7,30.50,ESE,108,6.0,12.0,41,0.00,,,0.00,0,WeatherCatV1.10B1784,2013-01-18 03:14:00,
2013-01-17 19:20:00,26.6,6.6,30.50,ESE,114,5.0,12.0,42,0.00,,,0.00,0,WeatherCatV1.10B1784,2013-01-18 03:20:00,
2013-01-17 19:26:00,26.3,6.4,30.50,East,99,10.0,12.0,42,0.00,,,0.00,0,WeatherCatV1.10B1784,2013-01-18 03:26:00,
2013-01-17 19:32:00,26.1,6.7,30.52,ESE,118,5.0,10.0,43,0.00,,,0.00,0,WeatherCatV1.10B1784,2013-01-18 03:32:00,
2013-01-17 19:38:00,26.0,6.1,30.52,ESE,106,8.0,12.0,42,0.00,,,0.00,0,WeatherCatV1.10B1784,2013-01-18 03:38:00,
2013-01-17 19:44:00,26.1,6.2,30.52,ESE,112,9.0,11.0,42,0.00,,,0.00,0,WeatherCatV1.10B1784,2013-01-18 03:44:00,
2013-01-17 19:50:00,26.3,6.9,30.52,ESE,120,7.0,11.0,43,0.00,,,0.00,0,WeatherCatV1.10B1784,2013-01-18 03:50:00,
2013-01-17 19:56:00,26.0,7.1,30.52,ESE,106,10.0,12.0,44,0.00,,,0.00,0,WeatherCatV1.10B1784,2013-01-18 03:56:00,
2013-01-17 20:02:00,26.0,7.6,30.52,ESE,111,6.0,12.0,45,0.00,,,0.00,0,WeatherCatV1.10B1784,2013-01-18 04:02:00,
2013-01-17 20:08:00,25.7,7.8,30.52,East,101,5.0,12.0,46,0.00,,,0.00,0,WeatherCatV1.10B1784,2013-01-18 04:08:00,
2013-01-17 20:14:00,25.7,8.3,30.49,East,97,1.0,7.0,47,0.00,,,0.00,0,WeatherCatV1.10B1784,2013-01-18 04:14:00,
2013-01-17 20:20:00,25.6,9.1,30.49,ESE,111,5.0,9.0,49,0.00,,,0.00,0,WeatherCatV1.10B1784,2013-01-18 04:20:00,
2013-01-17 20:26:00,25.6,7.7,30.49,ESE,106,6.0,14.0,46,0.00,,,0.00,0,WeatherCatV1.10B1784,2013-01-18 04:26:00,
2013-01-17 20:32:00,26.0,7.1,30.49,ESE,104,6.0,13.0,44,0.00,,,0.00,0,WeatherCatV1.10B1784,2013-01-18 04:32:00,
2013-01-17 20:38:00,26.3,6.4,30.49,ESE,105,6.0,9.0,42,0.00,,,0.00,0,WeatherCatV1.10B1784,2013-01-18 04:38:00,
2013-01-17 20:44:00,26.4,5.9,30.49,East,93,6.0,9.0,41,0.00,,,0.00,0,WeatherCatV1.10B1784,2013-01-18 04:44:00,
2013-01-17 20:50:00,26.3,7.9,30.49,ESE,106,6.0,7.0,45,0.00,,,0.00,0,WeatherCatV1.10B1784,2013-01-18 04:50:00,
2013-01-17 20:56:00,26.0,8.6,30.49,ESE,111,5.0,9.0,47,0.00,,,0.00,0,WeatherCatV1.10B1784,2013-01-18 04:56:00,
2013-01-17 21:00:00,26.0,7.1,30.49,ESE,114,5.0,10.0,44,0.00,,,0.00,0,WeatherCatV1.10B1784,2013-01-18 05:00:00,
2013-01-17 21:02:00,26.0,7.6,30.49,ESE,104,6.0,9.0,45,0.00,,,0.00,0,WeatherCatV1.10B1784,2013-01-18 05:02:00,
2013-01-17 21:04:00,26.0,7.1,30.49,ESE,106,5.0,10.0,44,0.00,,,0.00,0,WeatherCatV1.10B1784,2013-01-18 05:04:00,
2013-01-17 21:10:00,25.8,7.4,30.49,ESE,103,5.0,9.0,45,0.00,,,0.00,0,WeatherCatV1.10B1784,2013-01-18 05:10:00,
2013-01-17 21:16:00,25.7,7.3,30.48,ESE,120,6.0,7.0,45,0.00,,,0.00,0,WeatherCatV1.10B1784,2013-01-18 05:16:00,
2013-01-17 21:22:00,25.6,7.7,30.48,ESE,119,7.0,10.0,46,0.00,,,0.00,0,WeatherCatV1.10B1784,2013-01-18 05:22:00,
2013-01-17 21:28:00,25.8,7.4,30.48,ESE,111,4.0,8.0,45,0.00,,,0.00,0,WeatherCatV1.10B1784,2013-01-18 05:28:00,
2013-01-17 21:34:00,26.0,7.1,30.47,ESE,103,7.0,7.0,44,0.00,,,0.00,0,WeatherCatV1.10B1784,2013-01-18 05:34:00,
2013-01-17 21:40:00,26.1,6.7,30.47,ESE,102,4.0,7.0,43,0.00,,,0.00,0,WeatherCatV1.10B1784,2013-01-18 05:40:00,
2013-01-17 21:46:00,26.4,5.9,30.47,ESE,114,5.0,9.0,41,0.00,,,0.00,0,WeatherCatV1.10B1784,2013-01-18 05:46:00,
2013-01-17 21:52:00,26.3,6.9,30.47,ESE,104,5.0,9.0,43,0.00,,,0.00,0,WeatherCatV1.10B1784,2013-01-18 05:52:00,
2013-01-17 21:58:00,26.1,6.2,30.47,ESE,102,4.0,7.0,42,0.00,,,0.00,0,WeatherCatV1.10B1784,2013-01-18 05:58:00,
2013-01-17 22:04:00,26.6,5.0,30.47,ESE,103,5.0,9.0,39,0.00,,,0.00,0,WeatherCatV1.10B1784,2013-01-18 06:04:00,
2013-01-17 22:10:00,27.0,5.4,30.47,ESE,102,6.0,10.0,39,0.00,,,0.00,0,WeatherCatV1.10B1784,2013-01-18 06:10:00,
2013-01-17 22:16:00,27.0,4.8,30.43,East,79,6.0,11.0,38,0.00,,,0.00,0,WeatherCatV1.10B1784,2013-01-18 06:16:00,
2013-01-17 22:22:00,27.2,4.4,30.43,ESE,105,9.0,9.0,37,0.00,,,0.00,0,WeatherCatV1.10B1784,2013-01-18 06:22:00,
2013-01-17 22:28:00,27.3,4.5,30.43,ESE,108,5.0,8.0,37,0.00,,,0.00,0,WeatherCatV1.10B1784,2013-01-18 06:28:00,
2013-01-17 22:34:00,27.3,4.5,30.43,ESE,108,4.0,6.0,37,0.00,,,0.00,0,WeatherCatV1.10B1784,2013-01-18 06:34:00,
2013-01-17 22:40:00,27.2,4.4,30.43,ESE,106,4.0,7.0,37,0.00,,,0.00,0,WeatherCatV1.10B1784,2013-01-18 06:40:00,
2013-01-17 22:46:00,27.2,4.4,30.43,ESE,110,5.0,5.0,37,0.00,,,0.00,0,WeatherCatV1.10B1784,2013-01-18 06:46:00,
2013-01-17 22:52:00,27.2,3.8,30.43,ESE,109,4.0,6.0,36,0.00,,,0.00,0,WeatherCatV1.10B1784,2013-01-18 06:52:00,
2013-01-17 22:58:00,27.2,3.8,30.43,ESE,106,3.0,5.0,36,0.00,,,0.00,0,WeatherCatV1.10B1784,2013-01-18 06:58:00,
2013-01-17 23:04:00,27.3,3.3,30.43,ESE,106,2.0,7.0,35,0.00,,,0.00,0,WeatherCatV1.10B1784,2013-01-18 07:04:00,
2013-01-17 23:10:00,27.2,3.8,30.43,ESE,107,3.0,7.0,36,0.00,,,0.00,0,WeatherCatV1.10B1784,2013-01-18 07:10:00,
2013-01-17 23:16:00,27.3,3.9,30.44,ESE,103,3.0,7.0,36,0.00,,,0.00,0,WeatherCatV1.10B1784,2013-01-18 07:16:00,
2013-01-17 23:22:00,27.2,3.8,30.44,ESE,102,4.0,5.0,36,0.00,,,0.00,0,WeatherCatV1.10B1784,2013-01-18 07:22:00,
2013-01-17 23:28:00,27.2,3.8,30.44,ESE,102,3.0,6.0,36,0.00,,,0.00,0,WeatherCatV1.10B1784,2013-01-18 07:28:00,
2013-01-17 23:34:00,27.5,3.5,30.44,ESE,106,3.0,4.0,35,0.00,,,0.00,0,WeatherCatV1.10B1784,2013-01-18 07:34:00,
2013-01-17 23:40:00,27.6,3.6,30.44,ESE,108,3.0,4.0,35,0.00,,,0.00,0,WeatherCatV1.10B1784,2013-01-18 07:40:00,
2013-01-17 23:46:00,27.8,2.5,30.42,ESE,110,2.0,6.0,33,0.00,,,0.00,0,WeatherCatV1.10B1784,2013-01-18 07:46:00,
2013-01-17 23:52:00,28.1,2.7,30.42,ESE,107,1.0,5.0,33,0.00,,,0.00,0,WeatherCatV1.10B1784,2013-01-18 07:52:00,
2013-01-17 23:58:00,28.2,1.5,30.42,ESE,103,5.0,5.0,31,0.00,,,0.00,0,WeatherCatV1.10B1784,2013-01-18 07:58:00,